Weather History for Roosevelt Roads, PR

Change the Weather History Date:

Saturday, May 3, 2014

  Actual Average Record
Temperature  
Mean Temperature 78 °F -  
Max Temperature 84 °F 83 °F 88 °F (2013)
Min Temperature 73 °F 71 °F 46 °F (1997)
Cooling Degree Days 14    
Growing Degree Days 28 (Base 50)    
Moisture  
Dew Point 73 °F    
Average Humidity 85    
Maximum Humidity 97    
Minimum Humidity 69    
Precipitation  
Precipitation 1.75 in - - ()
Sea Level Pressure  
Sea Level Pressure 30.08 in    
Wind  
Wind Speed 8 mph (ESE)    
Max Wind Speed 20 mph    
Max Gust Speed 23 mph    
Visibility 7 miles    
Events Fog , Rain    
Averages and records for this station are not official NWS values.
T = Trace of Precipitation, MM = Missing Value Source: NWS Daily Summary

Daily Weather History Graph

Daily Weather History Graph

Search for Another Location

Airport:

Trip Planner

Search our weather history database for the weather conditions in past years. The results will help you decide how hot, cold, wet, or windy it might be!

Date:

Astronomy

May. 03, 2014 Rise Set
Actual Time 5:54 AM AST 6:44 PM AST
Civil Twilight 5:31 AM AST 7:07 PM AST
Nautical Twilight 5:04 AM AST 7:34 PM AST
Astronomical Twilight 4:37 AM AST 8:01 PM AST
Moon 9:27 AM AST (5/3) 10:42 PM AST (5/3)
Length of Visible Light 13h 35m
Length of Day
12h 50m
Waxing Crescent, 19% of the Moon is Illuminated
May 3
Waxing Crescent
May 6
First Quarter
May 14
Full
May 21
Last Quarter
May 28
New

Hourly Weather History & Observations

Time (AST) Temp. Heat Index Dew Point Humidity Pressure Visibility Wind Dir Wind Speed Gust Speed Precip Events Conditions
12:53 AM 79.0 °F - 73.0 °F 82% 30.06 in 10.0 mi East 8.1 mph - 0.00 in   Scattered Clouds
1:04 AM 79.0 °F - 73.0 °F 82% 30.06 in 10.0 mi ESE 8.1 mph - N/A   Mostly Cloudy
1:53 AM 80.1 °F 84.2 °F 73.0 °F 79% 30.05 in 10.0 mi East 8.1 mph - N/A   Mostly Cloudy
2:03 AM 80.1 °F 83.8 °F 72.0 °F 76% 30.05 in 10.0 mi East 8.1 mph - N/A   Mostly Cloudy
2:46 AM 79.0 °F - 73.0 °F 82% 30.05 in 10.0 mi ESE 10.4 mph - N/A   Mostly Cloudy
2:53 AM 80.1 °F 84.2 °F 73.0 °F 79% 30.05 in 10.0 mi ESE 9.2 mph - N/A   Overcast
3:17 AM 79.0 °F - 73.0 °F 82% 30.04 in 10.0 mi ESE 8.1 mph - N/A   Mostly Cloudy
3:25 AM 79.0 °F - 72.0 °F 79% 30.04 in 10.0 mi East 5.8 mph - N/A   Mostly Cloudy
3:53 AM 79.0 °F - 73.0 °F 82% 30.04 in 10.0 mi East 9.2 mph - N/A   Scattered Clouds
4:53 AM 79.0 °F - 72.0 °F 79% 30.05 in 10.0 mi ESE 8.1 mph - N/A   Scattered Clouds
5:53 AM 79.0 °F - 73.0 °F 82% 30.06 in 10.0 mi ESE 10.4 mph - N/A   Mostly Cloudy
6:29 AM 79.0 °F - 73.0 °F 82% 30.07 in 10.0 mi ESE 5.8 mph - N/A   Scattered Clouds
6:53 AM 80.1 °F 84.2 °F 73.0 °F 79% 30.09 in 10.0 mi ESE 10.4 mph - N/A   Scattered Clouds
7:05 AM 80.1 °F 84.2 °F 73.0 °F 79% 30.09 in 10.0 mi SE 9.2 mph - N/A   Mostly Cloudy
7:21 AM 80.1 °F 84.2 °F 73.0 °F 79% 30.09 in 10.0 mi SSE 9.2 mph - N/A   Mostly Cloudy
7:53 AM 81.0 °F 85.8 °F 73.0 °F 77% 30.10 in 10.0 mi SE 12.7 mph - N/A   Scattered Clouds
8:10 AM 82.9 °F 89.4 °F 73.9 °F 74% 30.11 in 10.0 mi East 16.1 mph - N/A   Mostly Cloudy
8:53 AM 84.0 °F 90.2 °F 73.0 °F 69% 30.12 in 10.0 mi ESE 13.8 mph 20.7 mph N/A   Mostly Cloudy
9:18 AM 84.9 °F 92.1 °F 73.9 °F 69% 30.12 in 10.0 mi East 12.7 mph - N/A   Overcast
9:53 AM 78.1 °F - 75.0 °F 90% 30.13 in 5.0 mi SE 10.4 mph - 0.00 in Rain Light Rain
10:09 AM 78.1 °F - 75.0 °F 90% 30.13 in 2.5 mi SE 8.1 mph - 0.08 in Rain Light Rain
10:16 AM 81.0 °F 87.9 °F 77.0 °F 88% 30.12 in 8.0 mi ESE 10.4 mph - 0.08 in Rain Light Rain
10:53 AM 82.9 °F 90.2 °F 75.0 °F 77% 30.13 in 10.0 mi ESE 12.7 mph - 0.08 in   Partly Cloudy
11:53 AM 84.0 °F 90.2 °F 73.0 °F 69% 30.12 in 10.0 mi ESE 19.6 mph 23.0 mph N/A   Scattered Clouds
12:53 PM 81.0 °F 85.2 °F 72.0 °F 74% 30.11 in 10.0 mi South 12.7 mph - N/A   Mostly Cloudy
1:07 PM 79.0 °F - 73.0 °F 82% 30.11 in 1.5 mi SSE 12.7 mph - 0.09 in Rain Light Rain
1:10 PM 78.1 °F - 73.0 °F 84% 30.11 in 2.0 mi SE 16.1 mph 20.7 mph 0.12 in Rain Rain
1:13 PM 77.0 °F - 73.0 °F 88% 30.11 in 1.8 mi SE 11.5 mph 20.7 mph 0.16 in Rain Heavy Rain
1:16 PM 75.9 °F - 73.9 °F 94% 30.11 in 1.0 mi SE 10.4 mph 20.7 mph 0.22 in Rain Heavy Rain
1:24 PM 75.9 °F - 73.9 °F 94% 30.11 in 1.5 mi SE 5.8 mph - 0.26 in Rain Light Rain
1:35 PM 77.0 °F - 73.9 °F 90% 30.10 in 2.0 mi SE 10.4 mph - 0.32 in Rain Light Rain
1:37 PM 77.0 °F - 73.0 °F 88% 30.10 in 3.0 mi SE 8.1 mph - 0.33 in Rain Light Rain
1:43 PM 75.9 °F - 73.0 °F 91% 30.10 in 1.8 mi SSE 6.9 mph - 0.37 in Rain Heavy Rain
1:51 PM 77.0 °F - 73.4 °F 89% 30.10 in 3.0 mi Calm Calm - 0.39 in Rain Light Rain
1:53 PM 77.0 °F - 73.9 °F 90% 30.10 in 4.0 mi Calm Calm - 0.39 in Rain Light Rain
2:46 PM 77.0 °F - 75.0 °F 94% 30.08 in 1.8 mi ENE 6.9 mph - 0.10 in Rain Heavy Rain
2:53 PM 75.9 °F - 73.9 °F 94% 30.08 in 1.0 mi SE 8.1 mph - 0.19 in Rain Heavy Rain
2:59 PM 75.9 °F - 73.0 °F 91% 30.07 in 1.5 mi East 4.6 mph - 0.04 in Rain Rain
3:06 PM 75.9 °F - 73.9 °F 94% 30.07 in 3.0 mi Calm Calm - 0.05 in Rain Light Rain
3:39 PM 77.0 °F - 73.9 °F 90% 30.06 in 1.8 mi ESE 8.1 mph - 0.16 in Rain Rain
3:42 PM 78.1 °F - 73.9 °F 87% 30.06 in 1.0 mi ESE 9.2 mph - 0.23 in Rain Heavy Rain
3:49 PM 75.2 °F - 73.4 °F 94% 30.07 in 0.5 mi SSE 17.3 mph 21.9 mph 0.59 in Fog , Rain Heavy Rain
3:53 PM 75.9 °F - 73.9 °F 94% 30.07 in 0.2 mi South 10.4 mph 21.9 mph 0.78 in Fog , Rain Heavy Rain
4:11 PM 75.9 °F - 73.9 °F 94% 30.07 in 1.5 mi Calm Calm - 0.18 in Rain Light Rain
4:20 PM 73.9 °F - 73.0 °F 97% 30.07 in 2.5 mi NNW 4.6 mph - 0.20 in Rain Light Rain
4:30 PM 75.0 °F - 73.0 °F 94% 30.06 in 3.0 mi Variable 4.6 mph - 0.22 in Rain Light Rain
4:48 PM 75.2 °F - 71.6 °F 89% 30.06 in 1.8 mi South 5.8 mph - 0.27 in Rain Heavy Rain
4:53 PM 75.9 °F - 73.0 °F 91% 30.06 in 1.2 mi SSW 3.5 mph - 0.29 in Rain Rain
5:00 PM 77.0 °F - 73.9 °F 90% 30.05 in 2.0 mi WSW 4.6 mph - 0.02 in Rain Light Rain
5:09 PM 77.0 °F - 73.9 °F 90% 30.05 in 10.0 mi West 3.5 mph - 0.02 in   Mostly Cloudy
5:31 PM 77.0 °F - 75.0 °F 94% 30.05 in 10.0 mi Calm Calm - 0.02 in   Overcast
5:53 PM 78.1 °F - 73.0 °F 84% 30.05 in 10.0 mi WNW 3.5 mph - 0.02 in   Overcast
6:16 PM 77.0 °F - 75.0 °F 94% 30.06 in 10.0 mi East 3.5 mph - N/A   Mostly Cloudy
6:53 PM 78.1 °F - 73.9 °F 87% 30.06 in 10.0 mi East 4.6 mph - N/A   Clear
7:37 PM 78.1 °F - 73.9 °F 87% 30.07 in 10.0 mi ESE 5.8 mph - N/A   Mostly Cloudy
7:53 PM 78.1 °F - 75.0 °F 90% 30.08 in 10.0 mi Calm Calm - N/A   Mostly Cloudy
8:49 PM 78.8 °F - 73.4 °F 83% 30.09 in 10.0 mi SE 4.6 mph - N/A   Scattered Clouds
8:53 PM 78.1 °F - 73.9 °F 87% 30.09 in 10.0 mi Calm Calm - N/A   Scattered Clouds
9:20 PM 78.1 °F - 73.9 °F 87% 30.10 in 10.0 mi ESE 5.8 mph - N/A   Mostly Cloudy
9:38 PM 78.1 °F - 73.9 °F 87% 30.10 in 10.0 mi ESE 6.9 mph - N/A   Scattered Clouds
9:49 PM 78.8 °F - 73.4 °F 83% 30.11 in 10.0 mi Calm Calm - N/A   Mostly Cloudy
9:53 PM 78.1 °F - 73.9 °F 87% 30.11 in 10.0 mi Calm Calm - N/A   Mostly Cloudy
10:53 PM 79.0 °F - 73.0 °F 82% 30.12 in 10.0 mi ESE 6.9 mph - N/A   Mostly Cloudy
11:10 PM 79.0 °F - 73.0 °F 82% 30.11 in 10.0 mi ESE 10.4 mph - N/A   Overcast
11:53 PM 79.0 °F - 73.0 °F 82% 30.11 in 10.0 mi ESE 9.2 mph - N/A   Mostly Cloudy